Notices

What's New in latest Release from April 7th, 2021:

- Updated Glossary, including Speed of Maximum Gust, and Total Hourly Precipitation

- Updated national and regional climate services offices contacts and prices information

- Addition of station inventory lists for 1981-2010, 1971-2000, and 1961-1990 Normals.

If you haven't already, please take our survey and provide feedback about our website: https://eccc.sondage-survey.ca/f/LanguageSelection.aspx?s=442ca660-fcf1-47c0-95a9-59707d6fd709

Hourly Data Report for November 29, 2017

VICTORIA UNIVERSITY CS
BRITISH COLUMBIA

48°27'25.200" N
123°18'16.600" W
60.10 m
1018598
71783
WYJ

Download Data

Hourly Data (November 2017)
Hourly Data Report for November 29, 2017
TIME
LST
Temp Definition
°C
Dew Point Definition
°C
Rel Hum Definition
%
Precip. Amount Definition
mm

Wind Dir Definition
10's deg

Wind Spd Definition
km/h
Visibility Definition
km
Stn Press Definition
kPa
Hmdx Definition


Wind Chill Definition


Weather Definition


00:00 6.2 4.1 86 0.0 26 9   101.56     LegendNANA
01:00 5.7 4.0 89 0.0 26 6   101.65     LegendNANA
02:00 6.4 4.6 88 0.0 24 5   101.76     LegendNANA
03:00 6.2 4.2 87 0.0 14 1   101.83     LegendNANA
04:00 5.4 4.3 93 0.0 19 4   101.88     LegendNANA
05:00 5.4 4.7 95 0.0 0 1   101.91     LegendNANA
06:00 6.5 5.3 92 0.0 16 6   101.96     LegendNANA
07:00 5.8 4.8 94 0.2 14 3   101.97     LegendNANA
08:00 6.7 4.7 87 0.0 14 4   102.02     LegendNANA
09:00 6.7 5.0 89 0.0 17 5   102.05     LegendNANA
10:00 6.7 5.0 89 0.0 15 6   102.13     LegendNANA
11:00 6.8 4.8 87 0.0 13 4   102.15     LegendNANA
12:00 6.5 5.2 91 0.0 14 3   102.13     LegendNANA
13:00 7.1 5.4 89 0.0 12 2   102.06     LegendNANA
14:00 8.1 5.8 86 0.0 13 2   102.02     LegendNANA
15:00 8.0 6.0 87 0.0 12 2   101.97     LegendNANA
16:00 7.8 6.3 91 0.0 13 1   101.89     LegendNANA
17:00 7.9 6.4 91 0.0 13 3   101.84     LegendNANA
18:00 8.0 6.6 91 0.0 13 1   101.80     LegendNANA
19:00 7.7 6.5 92 0.0 15 1   101.70     LegendNANA
20:00 7.8 6.5 91 0.0 15 3   101.65     LegendNANA
21:00 8.2 6.5 89 0.0 11 2   101.60     LegendNANA
22:00 8.3 6.4 88 0.0 11 4   101.56     LegendNANA
23:00 8.4 6.1 85 0.0 19 3   101.44     LegendNANA

Notes on Data Quality.

Legend

  • E = Estimated
  • M = Missing
  • NA = Not Available*
  • [empty] = Indicates an unobserved value
Date modified: